Regional Weather Roundup
Issued by NWS Little Rock, AR

Home | Current Version | Previous Version | Graphics & Text | Print | Product List | Glossary On
Versions: 1 2 3 4 5 6 7 8 9 10 11 12 13 14 15 16 17 18 19 20 21 22 23 24 25 26 27 28 29 30 31 32
000
ASUS44 KLZK 202305
RWRLZK

WEATHER ROUNDUP FOR ARKANSAS
NATIONAL WEATHER SERVICE LITTLE ROCK AR
500 PM CST TUE FEB 20 2018

NOTE: "FAIR" INDICATES FEW OR NO CLOUDS BELOW 12,000 FEET WITH NO
SIGNIFICANT WEATHER AND/OR OBSTRUCTIONS TO VISIBILITY.

ARZ001-003-010-029-210000-
NORTHWEST ARKANSAS

CITY           SKY/WX    TMP DP  RH WIND       PRES   REMARKS
FAYETTEVILLE   HVY RAIN  42  42 100 NW12      30.01R FOG
FORT SMITH     LGT RAIN  47  45  93 W16       29.96R
HARRISON       HVY RAIN  58  58 100 NW5       29.96R VSB 1
BENTONVILLE    LGT RAIN  36  35  96 N13G22    30.05R
ROGERS         RAIN      36  35  96 N15G23    30.04R
SILOAM SPGS    LGT SNOW  36  35  96 N17G24    30.06R FOG
SPRINGDALE     LGT RAIN  39  39 100 NW17G25   30.03R FOG
$$

ARZ004-005-016-210000-
NORTH CENTRAL ARKANSAS

CITY           SKY/WX    TMP DP  RH WIND       PRES   REMARKS
BATESVILLE     MOCLDY    75  64  68 S15G24    29.97F
FLIPPIN        CLOUDY    72  59  63 S14G26    29.93S
MTN HOME       CLOUDY    70  60  70 SW15G29   29.93S
$$

ARZ040-041-210000-
WEST CENTRAL ARKANSAS

CITY           SKY/WX    TMP DP  RH WIND       PRES   REMARKS
MENA           PTSUNNY   72  70  94 SE7       29.92S
MOUNT IDA      FAIR      71  64  78 MISG      29.91F
$$

ARZ009-017-025-026-028-210000-
NORTHEAST ARKANSAS

CITY           SKY/WX    TMP DP  RH WIND       PRES   REMARKS
JONESBORO      FAIR      74  67  78 S16       30.01R
NEWPORT          N/A     73  66  78 S17       29.99R
WALNUT RIDGE   FAIR      73  66  78 S18G24    29.99R
BLYTHEVILLE    CLOUDY    74  64  71 S12       30.04S
NW BLYTHEVILLE MOCLDY    73  63  68 S9        30.04R
$$

ARZ022-023-033-042-044-210000-
CENTRAL ARKANSAS

CITY           SKY/WX    TMP DP  RH WIND       PRES   REMARKS
LITTLE ROCK    CLOUDY    78  60  53 S15G22    29.96F
JACKSONVILLE   FAIR      78  63  59 SE7       29.96F
SEARCY         MOCLDY    76  69  79 SE14      29.97F
HOT SPRINGS    CLOUDY    75  61  61 SE6       29.95S
RUSSELLVILLE   CLOUDY    70  63  78 S6        29.93S
CLINTON        CLOUDY    66  66 100 CALM      29.95S FOG
$$

ARZ036-210000-
EAST ARKANSAS

CITY           SKY/WX    TMP DP  RH WIND       PRES   REMARKS
WEST MEMPHIS   CLOUDY    75  65  70 S13       30.03R
$$

ARZ050-053-066-070-073-210000-
SOUTHWEST ARKANSAS

CITY           SKY/WX    TMP DP  RH WIND       PRES   REMARKS
ARKADELPHIA    MOCLDY    76  63  64 S7        29.95S
CAMDEN         PTSUNNY   81  57  44 S13G20    29.95S
TEXARKANA      PTSUNNY   75  63  66 S12       29.93S
EL DORADO        N/A    N/A N/A N/A MISG      29.97S
DE QUEEN       CLOUDY    72  64  76 SE7       29.87F
$$

ARZ056-057-069-210000-
SOUTHEAST ARKANSAS

CITY           SKY/WX    TMP DP  RH WIND       PRES   REMARKS
PINE BLUFF     FAIR      78  62  57 S13       29.98F
STUTTGART      MOCLDY    78  66  66 S13       30.00S
MONTICELLO     PTSUNNY   79  62  56 S8        30.00S

$$






USA.gov is the U.S. government's official web portal to all federal, state and local government web resources and services.